Probability
0 0 0 0 0 0 0 0 0 0 0 0 0 0 0 0 0 0 0 0 0 0 0 0 0 0 0 0 0 0 0 0 0 0 0 0 0 0 0 0 0 0 0 0
0 0 0 0 0 0 0 0 0 0 0 0 0 0 0 0 0 0 0 0 0 0 0 0 0 0 0 0 0 0 0 0 0 0 0 0 0 0 0 0 0 0 0 0
0 0 0 0 0 0 0 0 0 0 0 0 0 0 0 0 0 0 0 0 0 0 0 0 0 0 0 0 0 0 0 0 0 0 0 0 0 0 0 0 0 0 0 0
0 0 0 0 0 0 0 0 0 0 0 0 0 0 0 0 0 0 0 0 0 0 0 0 0 0 0 0 0 0 0 0 0 0 0 0 0 0 0 0 0 0 0 0
0 0 0 0 0 0 0 0 0 0 0 0 0 0 0 0 0 0 0 0 0 0 0 0 0 0 0 0 0 0 0 0 0 0 0 0 0 0 0 0 0 0 0 0
0 0 0 0 0 0 0 0 0 0 0 0 0 0 0 0 0 0 0 0 0 0 0 0 0 0 0 0 0 0 0 0 0 0 0 0 0 0 0 0 0 0 0 0
0 0 0 0 0 0 0 0 0 0 0 0 0 0 0 0 0 0 0 0 0 0 0 0 0 0 0 0 0 0 0 0 0 0 0 0 0 0 0 0 0 0 0 0
0 0 0 0 0 0 0 0 0 0 0 0 0 0 0 0 0 0 0 0 0 0 0 0 0 0 0 0 0 0 0 0 0 0 0 0 0 0 0 0 0 0 0 0
0 0 0 0 0 0 0 0 0 0 0 0 0 0 0 0 0 0 0 0 0 0 0 0 0 0 0 0 0 0 0 0 0 0 0 0 0 0 0 0 0 0 0 0
0 0 0 0 0 0 0 0 0 0 0 0 0 0 0 0 0 0 0 0 0 0 0 0 0 0 0 0 0 0 0 0 0 0 0 0 0 0 0 0 0 0 0 0
0 0 0 0 0 0 0 0 0 0 0 0 0 0 0 0 0 0 0 0 0 0 0 0 0 0 0 0 0 0 0 0 0 0 0 0 0 0 0 0 0 0 0 0
0 0 0 0 0 0 0 0 0 0 0 0 0 0 0 0 0 0 0 0 0 0 0 0 0 0 0 0 0 0 0 0 0 0 0 0 0 0 0 0 0 0 0 0
0 0 0 0 0 0 0 0 0 0 0 0 0 0 0 0 0 0 0 0 0 0 0 0 0 0 0 0 0 0 0 0 0 0 0 0 0 0 0 0 0 0 0 0
0 0 0 0 0 0 0 0 0 0 0 0 0 0 0 0 0 0 0 0 0 0 0 0 0 0 0 0 0 0 0 0 0 0 0 0 0 0 0 0 0 0 0 0
0 0 0 0 0 0 0 0 0 0 0 0 0 0 0 0 0 0 0 0 0 0 0 0 0 0 0 0 0 0 0 0 0 0 0 0 0 0 0 0 0 0 0 0
0 0 0 0 0 0 0 0 0 0 0 0 0 0 0 0 0 0 0 0 0 0 0 0 0 0 0 0 0 0 0 0 0 0 0 0 0 0 0 0 0 0 0 0
0 0 0 0 0 0 0 0 0 0 0 0 0 0 0 0 0 0 0 0 0 0 0 0 0 0 0 0 0 0 0 0 0 0 0 0 0 0 0 0 0 0 0 0
0 0 0 0 0 0 0 0 0 0 0 0 0 0 0 0 0 0 0 0 0 0 0 0 0 0 0 0 0 0 0 0 0 0 0 0 0 0 0 0 0 0 0 0
0 0 0 0 0 0 0 0 0 0 0 0 0 0 0 0 0 0 0 0 0 0 0 0 0 0 0 0 0 0 0 0 0 0 0 0 0 0 0 0 0 0 0 0
0 0 0 0 0 0 0 0 0 0 0 0 0 0 0 0 0 0 0 0 0 0 0 0 0 0 0 0 0 0 0 0 0 0 0 0 0 0 0 0 0 0 0 0
0 0 0 0 0 0 0 0 0 0 0 0 0 0 0 0 0 0 0 0 0 0 0 0 0 0 0 0 0 0 0 0 0 0 0 0 0 0 0 0 0 0 0 0
0 0 0 0 0 0 0 0 0 0 0 0 0 0 0 0 0 0 0 0 0 0 0 0 0 0 0 0 0 0 0 0 0 0 0 0 0 0 0 0 0 0 0 0
0 0 0 0 0 0 0 0 0 0 0 0 0 0 0 0 0 0 0 0 0 0 0 0 0 0 0 0 0 0 0 0 0 0 0 0 0 0 0 0 0 0 0 0
0 0 0 0 0 0 0 0 0 0 0 0 0 0 0 0 0 0 0 0 0 0 0 0 0 0 0 0 0 0 0 0 0 0 0 0 0 0 0 0 0 0 0 0
0 0 0 0 0 0 0 0 0 0 0 0 0 0 0 0 0 0 0 0 0 0 0 0 0 0 0 0 0 0 0 0 0 0 0 0 0 0 0 0 0 0 0 0
0 0 0 0 0 0 0 0 0 0 0 0 0 0 0 0 0 0 0 0 0 0 0 0 0 0 0 0 0 0 0 0 0 0 0 0 0 0 0 0 0 0 0 0
0 0 0 0 0 0 0 0 0 0 0 0 0 0 0 0 0 0 0 0 0 0 0 0 0 0 0 0 0 0 0 0 0 0 0 0 0 0 0 0 0 0 0 0
Wind_Speed
6 5 6 8 8 10 12 12 12 11 12 16 12 10 9 7 5 5 6 7 9 10 9 8 8 8 8 7 7 7 7 6 6 5 4 4 4 4 4 4 5 5 5 6
4 4 5 5 8 11 12 10 11 10 14 13 9 6 8 8 6 7 8 8 9 9 9 10 10 10 8 8 7 7 7 6 5 4 4 4 4 4 4 5 5 5 6 6
4 2 1 8 11 12 9 9 11 14 16 10 6 8 9 8 7 9 9 8 8 9 10 10 10 9 9 8 7 7 6 5 4 4 4 4 4 4 5 5 5 6 6 6
4 4 9 10 5 9 10 10 12 10 10 8 9 8 6 6 7 8 7 6 6 6 6 6 6 6 6 6 6 6 5 4 4 3 4 3 4 5 5 5 5 6 7 7
5 5 8 9 6 7 9 10 10 13 12 8 3 2 5 5 5 6 5 4 4 4 5 6 7 7 7 6 5 5 4 4 4 4 4 4 5 6 5 4 5 6 6 7
6 6 8 9 4 5 4 8 7 9 11 6 4 2 6 2 2 2 2 3 4 5 6 6 6 7 7 6 5 4 4 4 3 3 4 5 5 5 4 4 6 6 7 7
6 6 9 9 3 6 5 10 4 5 7 7 8 7 3 1 2 3 4 4 5 6 6 5 6 7 6 5 4 3 2 2 2 3 4 5 4 4 5 5 6 7 8 8
7 6 11 6 8 10 10 4 2 3 4 6 6 2 2 2 3 4 5 5 5 6 5 4 5 6 5 3 2 2 1 1 2 3 3 3 4 5 5 5 6 8 8 9
11 10 6 7 9 7 4 4 4 4 4 5 5 4 4 3 4 4 4 4 4 6 6 4 3 4 4 2 2 1 1 2 3 3 4 4 4 5 5 5 6 7 7 9
5 8 6 6 5 4 5 5 4 4 5 6 6 5 5 4 4 4 4 4 4 6 5 3 2 2 2 2 1 1 2 3 3 4 5 4 4 4 5 5 6 7 8 9
6 6 3 6 8 8 6 4 3 3 4 6 6 6 5 5 5 4 4 3 4 5 4 3 2 1 1 1 1 1 3 3 4 4 5 5 5 5 6 7 8 9 8 8
9 9 8 7 5 6 7 7 7 6 4 3 5 6 5 5 4 5 4 4 4 3 3 2 2 1 1 1 1 2 3 4 4 4 4 5 6 7 11 13 18 20 20 18
6 4 5 3 1 4 5 6 5 6 6 5 4 5 6 5 4 5 5 4 4 3 3 2 1 1 2 1 2 3 4 5 4 4 5 6 6 7 9 10 15 18 20 22
3 4 3 3 3 3 4 4 5 5 4 4 5 5 6 5 5 5 4 4 3 3 2 1 1 2 3 2 2 4 4 6 6 5 5 6 6 7 8 9 11 8 11 18
4 4 4 4 4 4 5 6 7 5 5 5 5 6 6 6 5 4 3 3 3 2 1 1 2 4 3 2 3 4 4 4 5 5 6 6 7 7 7 9 10 11 9 11
3 3 4 5 5 5 5 6 6 5 5 5 5 5 5 5 5 4 3 3 2 1 1 2 3 4 3 3 4 4 5 10 10 6 6 6 7 7 8 9 10 10 10 9
7 6 5 5 5 5 4 5 6 6 6 6 6 6 6 6 4 3 2 1 1 1 2 3 4 4 4 4 4 4 5 7 12 9 6 7 7 8 8 9 9 10 10 12
5 5 6 7 7 6 5 5 6 6 5 5 6 6 5 4 3 1 0 1 1 2 3 3 4 5 4 5 5 5 5 6 6 7 7 7 9 8 8 9 10 12 11 12
4 5 5 6 6 7 6 6 6 6 6 6 6 5 4 3 2 1 0 1 2 4 4 4 8 6 5 7 9 5 6 7 8 8 8 12 11 8 9 10 11 11 11 11
6 7 8 7 7 7 7 7 7 6 5 5 5 4 3 2 1 0 0 2 3 4 5 6 6 5 6 7 11 5 6 7 8 9 9 9 9 10 9 10 11 11 11 11
8 9 9 9 8 7 7 7 7 7 5 4 4 3 2 0 0 0 1 3 4 4 5 9 6 5 6 8 11 6 6 7 8 9 9 10 10 11 11 11 11 12 11 11
8 9 9 9 9 8 6 5 6 6 5 4 3 2 1 1 1 2 3 4 5 8 6 4 4 9 12 13 6 6 7 8 8 8 9 9 10 11 11 11 11 12 11 11
8 9 9 8 8 7 6 5 5 5 4 3 2 1 0 1 2 2 4 3 4 9 7 5 10 17 19 10 6 7 8 9 9 9 9 10 10 11 11 12 11 11 11 11
9 8 8 7 7 8 6 4 4 3 3 2 1 0 1 2 2 2 3 8 11 12 7 10 17 18 18 7 6 7 8 9 9 9 10 10 10 10 11 11 12 11 11 13
8 8 7 7 7 5 4 4 3 3 2 1 1 2 1 2 3 4 4 6 10 12 7 11 17 18 11 7 8 9 9 9 11 11 10 10 10 11 11 11 12 12 12 12
7 6 5 5 4 3 2 2 2 1 2 2 2 2 2 2 3 4 4 6 8 11 8 7 8 11 8 8 9 9 9 11 12 10 11 11 12 12 12 12 14 12 12 12
7 5 5 4 3 3 2 2 1 1 2 2 3 3 3 4 4 5 6 6 6 7 7 7 7 8 8 9 9 10 10 10 10 10 11 11 11 11 12 13 12 12 12 12
Wind_Direction
206 188 170 193 198 188 198 207 216 234 238 254 257 256 265 271 261 237 225 210 203 201 196 189 185 184 182 179 175 169 169 182 199 200 200 207 219 229 236 241 247 250 256 261
216 208 199 224 223 206 216 223 232 251 261 256 260 257 261 260 246 239 234 222 210 201 192 191 189 185 180 180 176 168 175 190 191 189 201 216 228 236 245 253 256 256 257 261
216 201 154 251 221 207 210 208 199 227 245 256 259 251 248 251 240 235 236 223 208 201 197 194 188 180 180 177 163 165 177 185 188 196 214 230 236 243 251 256 257 262 263 261
152 136 227 242 213 204 216 231 216 229 244 244 242 252 251 241 235 241 233 216 205 194 186 177 165 160 153 147 156 164 174 187 196 203 225 238 243 251 256 255 257 262 266 265
149 200 262 286 249 190 199 251 226 226 247 254 255 300 286 243 222 226 218 198 183 171 159 146 147 145 138 142 150 161 182 198 207 210 227 240 249 257 260 261 266 264 265 267
148 182 230 242 229 167 133 269 250 215 236 234 155 224 268 275 180 169 138 129 130 125 122 130 135 134 135 145 155 182 196 205 211 214 226 241 251 260 261 261 267 273 274 269
170 208 252 247 189 129 175 242 246 205 215 189 194 213 236 109 102 111 105 106 114 116 119 129 131 129 134 146 180 193 181 195 221 231 238 247 256 261 268 273 278 277 278 277
161 195 246 212 148 182 213 219 199 197 196 192 206 194 158 131 117 112 106 105 113 113 108 111 123 127 134 164 180 154 165 217 246 252 256 261 261 270 270 273 280 282 283 284
187 209 224 178 193 210 187 195 204 196 194 173 177 185 168 151 137 127 123 119 114 117 112 106 117 128 142 169 151 150 200 252 264 269 265 261 261 271 278 273 275 282 283 286
215 249 239 226 233 231 204 204 202 188 175 167 173 173 164 153 145 135 127 125 121 121 122 124 126 127 147 158 155 170 244 266 270 273 276 271 263 261 267 271 274 278 281 284
224 256 273 255 225 219 211 202 185 171 173 173 164 166 166 161 156 147 134 128 131 136 139 146 141 140 158 170 161 232 262 269 274 270 270 275 269 259 266 255 261 275 275 275
213 212 195 226 222 191 187 197 188 170 160 158 164 163 153 153 149 142 139 134 132 132 135 144 148 186 243 227 207 240 273 275 273 275 276 275 281 285 275 275 284 284 286 286
208 193 185 211 191 176 184 191 176 168 164 152 145 146 143 141 142 138 138 141 147 150 151 155 174 257 270 259 242 246 261 273 275 274 277 279 281 286 294 293 287 288 290 292
192 146 174 201 196 169 151 134 121 111 112 121 124 123 124 122 129 137 145 149 142 138 147 167 233 272 276 270 265 266 268 277 282 271 273 275 276 278 284 292 299 293 290 293
200 187 179 142 120 116 116 116 115 116 113 107 114 124 129 132 137 137 129 124 121 123 156 230 271 279 285 280 275 275 277 276 275 271 271 273 275 279 281 284 288 293 293 292
149 130 133 139 147 142 135 139 141 145 138 130 126 125 125 123 121 118 119 126 131 195 264 273 276 280 289 284 282 280 276 287 293 286 278 280 280 282 284 285 287 289 289 292
150 169 171 169 171 164 161 157 151 145 138 134 134 125 117 112 110 109 105 102 161 249 265 267 275 287 288 280 276 276 275 284 293 293 283 282 282 281 282 283 285 286 286 290
181 178 171 166 162 154 141 134 132 132 131 129 123 119 121 126 135 142 103 12 342 309 285 271 275 286 281 280 277 273 274 277 279 281 282 283 284 282 283 284 285 287 290 293
133 132 130 133 137 135 132 130 126 121 120 122 122 123 124 126 131 139 98 332 303 297 292 291 305 303 286 285 294 275 274 281 285 284 284 290 293 287 285 286 287 288 290 292
110 111 111 107 106 115 119 118 116 112 113 116 114 110 105 104 111 107 299 276 260 257 273 291 295 285 282 284 295 280 278 282 286 289 290 288 288 288 287 288 289 289 290 289
117 114 111 108 101 98 106 115 115 112 107 109 115 121 124 97 356 266 281 292 285 280 289 301 301 290 289 292 297 284 281 284 288 289 291 291 291 291 290 290 291 291 290 289
116 113 109 108 105 96 89 95 103 106 101 94 95 103 99 349 316 296 261 256 280 305 310 294 290 296 302 305 293 287 287 289 290 291 290 290 291 291 290 290 289 289 288 288
108 108 107 107 108 104 91 84 88 95 96 94 92 83 359 289 285 288 301 293 295 307 310 292 301 307 310 311 297 294 293 293 292 290 289 288 287 287 288 289 288 288 287 286
104 102 101 101 100 97 89 76 72 75 77 66 44 339 295 307 304 271 267 301 312 312 306 303 310 312 316 311 299 295 293 291 289 287 287 287 286 286 287 288 288 288 287 287
103 101 100 98 94 93 96 85 69 61 52 35 351 322 295 260 270 293 296 296 306 313 306 308 312 314 313 299 296 294 292 289 290 293 291 292 291 290 289 288 287 288 287 286
97 95 91 90 97 101 96 86 70 35 12 349 333 322 312 300 288 290 295 296 297 308 308 301 300 304 299 294 293 293 293 295 297 294 290 290 289 289 289 288 287 286 286 285
89 89 89 82 73 75 77 73 59 6 342 323 313 312 314 315 311 308 306 305 304 303 300 299 297 297 297 296 295 295 294 293 292 291 290 290 290 289 289 289 288 287 286 285